Starlink 11255

operational
NORAD ID: 60730 Int'l Des: 2024-152 Owner: SPXS Country: US Constellation: starlink
LEOCIRCULAR

关于 Starlink 11255

正在加载描述...

实时位置

正在加载3D地球...

即将过境

高度历史

Altitude vs Time

uPlot chart will show altitude changes over time

两行轨道根数

1 60730U 24152L 25259.71439327 -.00003986 00000-0 -28091-4 0 9991
2 60730 53.1593 253.6436 0001609 88.4262 271.6940 15.69678063 61523
Epoch: Sep 16, 2025 • Age: 30 hours

当前状态

高度 364.1 km
速度 7.70 km/s
星下点 47.73°N, 35.57°E
发射日期 Aug 28, 2024
运行时间 1 years
类型 internet

技术详情

分类 Payload
质量 960.00 kg
干质量 910.00 kg
总质量 960.00 kg
长度 0.30 m
直径 4.10 m
跨度 29.00 m
形状 Box + pan
制造商 SPXS
平台类型 Starlink V2MD
阶段状态 In Orbit
所有者/国家 SPXS/US

大型星座

Loading constellations...